Погода Миллерово

Хотите узнать прогноз погоды Миллерово? Тогда Вам сюда: Погода Миллерово

Поиск расширенной информации на нашем сайте:

Полезная информация:

Новости сайта



02.01.2020
Опубликован Долгосрочный прогноз погоды по городам России и ближнего зарубежья на январь 2020 года.
Карты: Прогноз на январь и февраль 2020 года, Сравнение прогнозируемой аномалии приземной температуры воздуха на январь 2020 года по разным моделям.




Погода Миллерово - сегодня

Время (UTC), дата Ветер
(°,м/с) 
Видим.   Явления Облачность Т
(°С)
Тd
(°С)
f(%) Тe
(°С)
Pmin
(гПа)
dP
(гПа)
Po
(мм)
O2
(г/м3)
Тmin Tmax R s Состояние
почвы
15 18.10.20 290 (З) 3{11}  10 км    8/0 средняя, верхняя 
[Ac cast|Ci ing]
+17.4 +0.9 33 +18  1008.9  0.1  743  281    +22.4       
18 18.10.20 100 (В) 10 км    10/0 средняя, верхняя 
[Ac lent|Ci]
+11.2 +4.4 63 +12  1015.3  1.7  748  289           
21 18.10.20 260 (З) 10 км    8/0 средняя, верхняя 
[Ac lent|Ci fib]
+9.9 +5 72 +11  1016.8  1.3  749  290           
00 19.10.20 330 (СЗ) 10 км    ясно 
+7.6 +5.2 85 +9  1017.9  749  293           
03 19.10.20 350 (С) 10 км    8/0 средняя, верхняя 
[Ac lent|Ci sp]
+4.4 +3.5 94 +4  1019.2  750  297  +4.4        очень
сухая
с трещинами 
06 19.10.20 060 (СВ) 10 км    8/0 верхняя 
[Ci sp]
+8.1 +0 57 +7  1020.4  1.4  751  294  +3.6         
09 19.10.20 360 (С) 10 км    8/0 верхняя 
[Ci sp]
+14.1 -1.6 34 +15  1019.2  -0.9  750  288           
12 19.10.20 250 (З) 10 км    9/0 средняя, верхняя 
[Ac trans|Ci sp]
+14.3 -0.4 36 +15  1018.1  -1  750  287           
15 19.10.20 320 (СЗ) 10 км    10/0 средняя 
[Ac und]
+11.8 -0.2 44 +12  1018.9  0.7  750  290    +15.2       
18 19.10.20 300 (СЗ) 10 км    10/0 средняя 
[Ac und]
+10.1 +0.7 52 +11  1019.6  0.6  751  292           
21 19.10.20 тихо ()   10 км    ясно 
+5.3 +0.8 73 +5  1021.2  1.3  752  297           
00 20.10.20 250 (З) 10 км    ясно 
+3 +0.9 86 +4  1022.3  0.9  752  300           
03 20.10.20 240 (ЮЗ) 10 км    ясно 
+2 +0.9 92 +3  1023.5  1.1  753  301  +0.2        очень
сухая
с трещинами 
06 20.10.20 270 (З) 10 км    ясно 
+6.4 +2.9 78 +6  1024.3  754  296           
09 20.10.20 280 (З) 10 км    5/5 1000 м 
[Cu hum]
+11.4 -2.8 37 +11  1023.9  -0.1  754  292           
12 20.10.20 260 (З) 5{10}  10 км    3/3 1000 м 
[Cu hum]
+12.4 -5.3 29 +12  1022.8  -1  753  291           
15 20.10.20 250 (З) 2{11}  10 км    6/3 600 м кучево-дожд., средняя 
[Cb calv|Ac cast]
+8.1 -4.1 42 +8  1023.3  0.2  753  295    +12.6       
18 20.10.20 тихо ()   10 км    8/0 средняя 
[Ac trans]
+5.5 -3.2 53 +6  1024.3  0.8  754  298           
21 20.10.20 250 (З) 10 км    ясно 
+2.1 -2.8 70 +3  1025.7  1.2  755  302           
00 21.10.20 240 (ЮЗ) 10 км    ясно 
+0.3 -2.2 83 +1  1026.8  755  304           
03 21.10.20 260 (З) 10 км    ясно 
-0.6 -2.3 88 -1  1027.8  0.9  756  306  -0.6        очень
сухая
с трещинами 
06 21.10.20 260 (З) 10 км    1/0 средняя 
[Ac lent]
+3.5 -0.5 75 +3  1028.9  1.3  757  301  -1.2         
09 21.10.20 280 (З) 10 км    8/1 1000 м средняя, верхняя 
[Cu hum|Ac lent|Ci fib]
+8.8 -2.2 46 +8  1028.4  -0.1  757  296           
12 21.10.20 280 (З) 10 км    9/0 средняя, верхняя 
[Ac lent|Cc]
+10 -4.4 36 +9  1027.3  -1  756  294           
15 21.10.20 280 (З) 10 км    10/0 средняя 
[Ac lent]
+8.5 -3.7 42 +9  1026.9  -0.5  756  296    +10.8       
Время (UTC), дата Ветер
(°,м/с) 
Видим.   Явления Облачность Т
(°С)
Тd
(°С)
f(%) Тe
(°С)
Pmin
(гПа)
dP
(гПа)
Po
(мм)
O2
(г/м3)
Тmin Tmax R s Состояние
почвы

Для получения пояснительной информации подведите курсор к названию столбца.

ПОГОДА Миллерово - архив

Всё, что Вы хотите узнать о погоде Миллерово - удобно и подробно!

Выберите нужную дату (начиная с 1 января 2019* года) и нажмите кнопку "Найти".
Будут отображены архивные сводки погоды по пункту Миллерово, начиная с указанной даты.


Отображать данные в формате CSV (для использования в таблицах Excel)


Внимание! Наш архив погоды предназначен исключительно для личного некоммерческого использования в познавательных целях. Если Вам необходимы официальные справки о состоянии погоды (для производственных, юридических, коммерческих и т.п. целей), обращайтесь в органы Росгидромета.

*Примечание: данная дата относится к архиву по метеостанциям СССР (Россия, СНГ, Балтия).
Архив по метеостанциям Зарубежной Европы и Азии (кроме Китая) хранится 10 дней, по другим регионам земного шара (Китай, Африка, Америка, Австралия, Океания) - 1 день.

Миллерово - район местоположения метеостанции


Название, широта, долгота, высота метеостанции:
Миллерово 48.9°ш. 40.4°д. 155 м над ур. моря [Российская Федерация]

Дополнительная информация

В oтличие oт бoльшинства пoгoдных сайтoв мы публикуем пoдрoбную метеoинфoрмацию в детальнoм прoфессиoнальнoм фoрмате.

Характеристики температуры и влажнoсти вoздуха измеряются на высoте 2 м в тени вдали oт зданий и деревьев.
Скoрoсть ветра измеряется на высoте 10 м (на урoвне рoста челoвека скoрoсть ветра ниже в 1.5-2 раза). Если метеoстанция нахoдится в гoрoде или в лесу, тo скoрoсть ветра занижена на 2-4 м/с пo сравнению с oткрытым местoм. Скoрoсть ветра над акватoриями крупных рек и oзёр, а также на вершинах хoлмoв на 2-5 м/с выше, чем в oбычных услoвиях.
Атмoсфернoе давление в разных тoчках местнoсти мoжет значительнo oтличаться oт давления на метеoстанции, в зависимoсти oт услoвий рельефа (при пoдъёме на 10 м давление пoнижается примернo на 1 мм рт.ст.).